Wind_Speed
19 19 18 20 20 16 11 10 11 12 11 10 10 8 7 7 7 8 10 10 10 10 10 10 10 10 11 10 9 9 9 9 9
20 20 19 19 16 15 12 12 13 13 11 11 10 9 7 6 7 9 11 13 13 13 11 12 12 10 10 9 8 9 9 9 10
24 22 21 17 17 15 13 12 14 13 12 11 10 10 8 7 7 10 13 15 11 13 11 10 10 9 9 8 9 9 10 10 9
28 27 23 19 16 16 14 14 15 13 12 11 10 9 8 8 7 9 11 12 11 11 11 9 9 9 9 9 9 9 9 8 9
28 23 22 22 19 17 16 16 16 15 14 12 11 10 9 8 9 10 9 10 11 10 10 9 9 9 9 8 8 7 7 7 7
23 22 21 21 20 19 18 17 18 17 16 14 13 11 10 10 10 10 10 10 11 11 11 10 10 9 8 7 7 6 5 5 4
26 21 20 21 20 21 20 20 21 17 16 15 14 12 11 10 10 10 9 9 10 11 10 10 9 8 8 7 6 5 4 3 2
27 25 23 23 23 24 22 20 20 19 18 17 15 13 11 10 10 11 11 11 10 10 11 10 9 8 7 6 5 4 2 1 1
27 25 24 26 25 25 23 23 22 22 20 18 16 14 12 11 12 12 12 12 12 11 11 11 10 10 8 6 5 4 3 2 1
25 26 25 26 27 26 24 25 24 24 22 19 17 15 13 13 13 14 13 13 13 12 12 12 11 11 10 8 7 6 5 4 4
24 24 25 25 27 27 26 25 26 25 23 21 19 17 15 14 15 16 15 14 14 14 14 14 13 12 11 10 8 7 6 7 8
24 24 24 25 26 28 28 28 28 27 26 23 22 19 17 17 17 16 16 16 16 16 15 15 15 14 13 12 10 10 10 10 11
25 25 25 25 27 28 29 30 29 28 26 25 24 22 20 19 19 19 18 18 18 18 17 17 17 16 15 14 13 13 13 14 14
25 26 26 27 28 28 30 29 27 27 27 26 26 24 22 21 21 19 19 19 19 19 19 19 19 18 16 16 17 16 16 16 16
26 27 28 29 30 31 31 29 29 28 27 27 27 26 24 22 22 20 20 21 20 20 20 20 20 19 19 19 19 19 19 19 18
27 28 30 31 31 31 30 29 27 27 27 27 28 27 25 25 24 24 21 21 22 22 22 22 22 21 22 22 21 22 22 21 21
28 29 31 32 32 34 35 33 32 30 29 29 27 28 28 27 28 25 24 24 24 24 24 24 24 23 23 23 25 25 25 25 24
26 28 29 32 33 34 35 31 32 32 32 30 32 30 30 27 29 28 27 28 28 26 26 26 26 26 25 26 27 27 28 28 27
24 24 26 28 31 32 30 33 35 35 33 34 34 33 30 30 31 31 30 31 30 29 28 28 28 28 27 28 29 29 30 30 30
25 28 33 34 32 32 33 34 34 34 35 35 34 34 32 33 34 33 30 33 31 30 30 30 30 30 30 31 30 32 32 32 31
Wind_Direction
192 201 212 223 227 225 217 204 189 185 176 173 170 167 168 166 169 174 168 167 164 157 151 145 144 136 129 124 117 110 102 95 89
203 209 216 224 224 222 215 205 197 193 184 183 175 173 177 187 185 161 140 133 150 150 157 147 142 143 133 125 117 107 101 96 89
209 212 219 229 229 223 216 207 205 198 194 191 188 180 184 189 196 155 146 134 143 144 151 148 145 140 128 119 112 108 100 94 86
214 220 225 226 226 227 223 212 208 203 203 203 202 188 194 187 181 175 158 153 147 148 148 148 142 131 121 118 117 110 103 92 83
216 217 224 227 233 230 227 215 210 206 206 209 213 206 189 188 177 179 165 154 149 151 148 145 136 131 129 127 117 110 96 88 82
226 223 226 229 228 226 224 219 214 209 209 211 213 210 190 185 180 181 176 167 156 155 154 149 146 144 141 137 129 119 107 96 82
240 235 225 226 220 221 222 216 215 211 214 218 212 204 198 191 185 186 184 178 177 165 158 160 158 158 156 156 149 139 139 128 100
238 236 228 225 223 221 220 214 215 215 212 217 218 211 203 200 196 191 187 187 190 180 173 176 173 180 184 178 171 168 168 161 112
234 234 229 225 223 223 219 215 214 217 218 217 215 216 211 207 205 200 199 192 195 198 193 190 190 194 197 195 196 202 213 226 301
229 230 229 225 225 224 217 216 214 219 219 219 218 216 210 211 208 208 206 205 203 203 204 206 205 207 208 207 214 220 234 257 276
224 227 228 226 223 224 220 215 216 220 223 220 222 219 208 210 212 212 210 214 213 212 212 217 216 218 220 224 230 240 250 262 273
221 225 226 226 223 222 221 216 218 217 223 223 224 223 215 210 218 215 219 216 219 220 223 225 225 226 229 234 239 247 255 265 274
221 220 222 223 222 224 224 222 219 220 221 224 228 225 222 218 218 225 224 226 224 225 226 229 231 232 234 237 241 248 256 263 272
225 220 219 219 221 221 228 231 227 227 225 224 230 235 230 229 227 225 231 234 233 233 233 236 237 238 238 243 248 253 259 266 271
223 222 219 217 218 222 229 233 232 230 231 231 231 235 241 241 243 237 236 238 238 239 239 240 243 243 244 247 252 256 261 265 270
224 222 223 219 219 221 226 234 235 236 236 233 238 239 242 247 249 249 243 241 245 247 246 245 245 245 247 252 256 259 263 266 268
225 223 223 225 222 220 226 228 234 236 236 240 237 241 245 247 252 254 256 254 247 248 249 248 247 246 248 252 256 260 263 266 269
226 224 222 224 226 226 229 231 238 240 242 244 245 240 244 248 251 254 254 256 257 254 254 253 251 250 251 253 256 261 264 267 270
228 228 224 217 224 228 231 234 235 240 244 247 247 250 248 247 247 250 253 256 256 259 258 259 258 257 254 256 259 261 264 268 270
223 232 215 221 223 225 226 230 236 239 242 246 249 251 253 251 253 252 255 261 263 263 262 259 259 258 259 260 261 263 266 269 271
Height
3171 3171 3173 3174 3175 3176 3176 3176 3177 3178 3179 3180 3181 3182 3183 3183 3183 3184 3184 3184 3185 3187 3188 3189 3189 3190 3191 3191 3192 3193 3194 3194 3193
3169 3170 3171 3172 3174 3174 3175 3175 3176 3177 3179 3180 3181 3182 3183 3183 3184 3184 3184 3185 3186 3187 3189 3189 3190 3191 3192 3192 3193 3193 3194 3194 3194
3167 3168 3170 3170 3172 3173 3173 3174 3175 3177 3178 3180 3181 3182 3183 3184 3184 3185 3184 3186 3186 3187 3189 3190 3191 3192 3192 3193 3194 3194 3195 3195 3195
3165 3166 3167 3169 3170 3172 3173 3173 3173 3176 3177 3178 3180 3181 3182 3183 3185 3185 3185 3185 3187 3188 3189 3190 3192 3192 3193 3194 3195 3195 3195 3195 3196
3163 3163 3165 3166 3168 3170 3171 3172 3172 3174 3176 3178 3179 3180 3181 3183 3184 3185 3186 3187 3187 3189 3190 3191 3192 3193 3194 3194 3195 3195 3196 3196 3196
3159 3161 3163 3164 3165 3167 3169 3171 3171 3172 3174 3176 3178 3179 3180 3182 3183 3184 3186 3187 3187 3188 3190 3191 3192 3193 3193 3194 3194 3195 3196 3196 3196
3157 3160 3161 3161 3162 3164 3166 3168 3169 3172 3173 3175 3176 3177 3179 3181 3182 3183 3185 3186 3187 3187 3189 3190 3191 3192 3192 3193 3194 3195 3195 3195 3196
3154 3156 3158 3158 3160 3161 3163 3165 3167 3170 3172 3173 3174 3176 3178 3180 3181 3182 3184 3185 3186 3187 3187 3189 3190 3191 3192 3193 3194 3195 3196 3196 3196
3150 3152 3154 3155 3157 3158 3162 3163 3165 3167 3169 3171 3173 3174 3176 3178 3180 3181 3182 3183 3184 3186 3187 3188 3188 3190 3191 3192 3193 3194 3195 3195 3195
3146 3148 3150 3151 3154 3156 3159 3160 3162 3164 3166 3168 3170 3172 3174 3176 3178 3179 3180 3182 3182 3184 3185 3185 3187 3188 3189 3190 3190 3191 3192 3192 3192
3141 3144 3146 3148 3150 3152 3155 3158 3159 3161 3163 3166 3168 3169 3172 3173 3175 3177 3178 3180 3181 3182 3183 3184 3185 3185 3186 3187 3188 3189 3189 3189 3190
3136 3140 3143 3145 3146 3148 3150 3153 3156 3157 3159 3162 3164 3167 3169 3170 3171 3173 3175 3176 3178 3179 3180 3181 3182 3182 3183 3184 3185 3186 3186 3186 3187
3133 3135 3138 3141 3143 3145 3146 3149 3152 3154 3156 3159 3160 3163 3165 3167 3168 3170 3171 3172 3174 3175 3176 3177 3178 3179 3180 3181 3181 3182 3183 3183 3183
3129 3131 3134 3137 3139 3141 3142 3145 3148 3151 3153 3154 3156 3158 3160 3162 3164 3166 3167 3168 3170 3171 3173 3174 3175 3176 3177 3178 3178 3178 3178 3179 3179
3124 3127 3129 3132 3135 3137 3139 3141 3144 3147 3149 3150 3152 3154 3156 3158 3159 3162 3163 3164 3166 3167 3169 3170 3171 3172 3173 3173 3174 3174 3174 3174 3174
3118 3122 3124 3127 3130 3133 3135 3136 3138 3141 3144 3146 3147 3149 3151 3153 3155 3157 3159 3160 3161 3162 3163 3165 3166 3167 3168 3168 3168 3168 3168 3169 3169
3113 3116 3119 3123 3126 3128 3130 3132 3134 3136 3138 3139 3142 3143 3145 3147 3148 3151 3153 3155 3156 3157 3158 3159 3161 3162 3163 3163 3162 3162 3162 3162 3163
3107 3111 3114 3117 3121 3124 3126 3128 3130 3131 3133 3134 3134 3136 3138 3141 3141 3143 3146 3147 3149 3151 3152 3153 3155 3156 3157 3157 3157 3157 3156 3156 3156
3103 3105 3108 3111 3115 3118 3122 3123 3124 3126 3127 3128 3128 3130 3133 3134 3136 3136 3137 3138 3141 3143 3144 3146 3147 3148 3149 3150 3150 3150 3149 3149 3149
3098 3101 3103 3106 3108 3111 3113 3115 3117 3119 3121 3122 3123 3124 3125 3126 3127 3129 3132 3130 3133 3135 3137 3137 3139 3140 3142 3142 3143 3143 3142 3142 3141